YOTSUBA-KULOVER

Last updated on Sun Dec 14 2025 00:02:12 GMT+0000 (Coordinated Universal Time)

1 65941U 98067XN 25346.71267056 .00088760 00000+0 10939-2 0 9991 2 65941 51.6283 140.1142 0001404 246.8378 113.2466 15.59447843 9857
UTC large
Height (km)
Speed (km/s)
/
Latitude / Longitude
Inclination (degrees)
Orbital Period (minutes)
Azimuth
Elevation
Range (km)
Doppler Factor

Next 0 passes for location: London (51.5072 / 0.1276)

Sorry there are no passes over London.